Regional Weather Roundup
Issued by NWS

Home | Current Version | Previous Version | Text Only | Print | Product List | Glossary Off
Versions: 1 2 3 4 5 6 7 8 9 10 11 12 13 14 15 16 17 18 19 20 21 22 23 24 25 26 27 28 29 30 31 32 33 34 35 36 37 38 39 40 41 42 43 44 45 46 47 48 49 50

000
ASUS43 KMKX 231200
RWRWI

WISCONSIN REGIONAL WEATHER ROUNDUP
NATIONAL WEATHER SERVICE MILWAUKEE/SULLIVAN WI
700 AM CDT WED APR 23 2014

NOTE: "FAIR" INDICATES FEW OR NO CLOUDS BELOW 12,000 FEET WITH NO
SIGNIFICANT WEATHER AND/OR OBSTRUCTIONS TO VISIBILITY.

WIZ001-002-006>008-014>016-023>028-231300-
NORTHWEST WISCONSIN

CITY           SKY/WX    TMP DP  RH WIND       PRES   REMARKS
SUPERIOR ARPT  MOCLDY    30  27  88 NE5       30.15R WCI  25
ASHLAND        PTCLDY    29  26  89 CALM      30.17R
6HR MIN TEMP:  23; 6HR MAX TEMP:  29;

HAYWARD        MOCLDY    28  25  88 CALM      30.13S
6HR MIN TEMP:  23; 6HR MAX TEMP:  28;

SIREN          MOCLDY    28  24  86 CALM      30.12R
RICE LAKE      MOCLDY    30  26  86 CALM      30.14S
LADYSMITH      MOCLDY    32  27  80 E6        30.15R WCI  26
EAU CLAIRE     NOT AVBL
MENOMONIE      CLOUDY    34  27  73 CALM      30.12F
NEW RICHMOND   CLOUDY    37  28  71 SE3       30.11S
OSCEOLA        CLOUDY    39  28  64 SE3       30.14R
$$

WIZ003>005-009-010-017-018-231300-
NORTH CENTRAL WISCONSIN

CITY           SKY/WX    TMP DP  RH WIND       PRES   REMARKS
WOODRUFF       CLEAR     23  15  70 CALM      30.14S
RHINELANDER    CLEAR     26  21  81 CALM      30.15S
6HR MIN TEMP:  18; 6HR MAX TEMP:  27;

EAGLE RIVER    CLEAR     22  22  99 CALM      30.14S
LAND O LAKES   CLEAR     20  18  95 CALM      30.15R
PHILLIPS       MOCLDY    25  23  92 CALM      30.14R
TOMAHAWK       CLEAR     22  20  94 CALM      30.16R
MEDFORD        MOCLDY    30  25  81 CALM      30.14R
MERRILL        CLEAR     24  23  94 CALM      30.15S
$$

WIZ029-030-035-036-043>047-231300-
CENTRAL WISCONSIN

CITY           SKY/WX    TMP DP  RH WIND       PRES   REMARKS
WAUSAU         PTCLDY    29  25  85 CALM      30.14S
6HR MIN TEMP:  27; 6HR MAX TEMP:  33;

MOSINEE        CLEAR     30  27  86 NE3       30.16R
MARSHFIELD     MOCLDY    32  27  81 E3        30.14R
6HR MIN TEMP:  31; 6HR MAX TEMP:  37;

STEVENS POINT  PTCLDY    29  24  82 CALM      30.16S
WAUPACA        PTCLDY    30  28  93 NE5       30.17S WCI  25
WAUTOMA        NOT AVBL
WISC RAPIDS    MOCLDY    28  25  88 E5        30.16S WCI  23
6HR MIN TEMP:  26; 6HR MAX TEMP:  32;

CAMP DOUGLAS   NOT AVBL
$$

WIZ011>013-019>022-031-037>040-048>050-231300-
NORTHEAST WISCONSIN

CITY           SKY/WX    TMP DP  RH WIND       PRES   REMARKS
ANTIGO         CLEAR     28  26  96 CALM      30.15S
STURGEON BAY   SUNNY     30  25  80 NW7       30.18R WCI  23
6HR MIN TEMP:  28; 6HR MAX TEMP:  32;

GREEN BAY      SUNNY     32  28  85 NW3       30.18R
6HR MIN TEMP:  29; 6HR MAX TEMP:  34;

MANITOWOC      NOT AVBL
APPLETON       MOSUNNY   32  25  74 VRB6      30.18R WCI  26
CLINTONVILLE   CLEAR     28  27  93 CALM      30.18R
OSHKOSH        SUNNY     36  27  69 NE6       30.16S WCI  31
6HR MIN TEMP:  30; 6HR MAX TEMP:  39;

$$

WIZ032>034-041-042-053>061-231300-
SOUTHWEST WISCONSIN

CITY           SKY/WX    TMP DP  RH WIND       PRES   REMARKS
LA CROSSE      PTCLDY    38  28  67 SE6       30.15R WCI  33
6HR MIN TEMP:  35; 6HR MAX TEMP:  43;

SPARTA         PTCLDY    25  23  91 CALM      30.16R
VIROQUA        FAIR      35  27  74 E7        30.13S WCI  29
BOSCOBEL       CLEAR     31  27  85 CALM      30.17R
6HR MIN TEMP:  29; 6HR MAX TEMP:  41;

PRAIRIE DU CHI PTCLDY    39  30  70 CALM      30.15R
PLATTEVILLE    FAIR      32  27  79 CALM      30.16R
$$

WIZ056-057-062-063-064-067-068-231300-
SOUTH CENTRAL WISCONSIN

CITY           SKY/WX    TMP DP  RH WIND       PRES   REMARKS
BARABOO/DELLS  CLEAR     29  25  84 CALM      30.15S
LONE ROCK      NOT AVBL
WATERTOWN      CLEAR     30  28  90 CALM      30.16S
MADISON        PTCLDY    32  28  85 CALM      30.17R
6HR MIN TEMP:  29; 6HR MAX TEMP:  37;

MIDDLETON      FAIR      33  29  82 CALM      30.17R
MONROE         CLEAR     33  32  98 E3        30.14S
JANESVILLE     NOT AVBL
$$

WIZ051-052-058>065-066-070>072-231300-
SOUTHEAST WISCONSIN

CITY           SKY/WX    TMP DP  RH WIND       PRES   REMARKS
MILWAUKEE      MOSUNNY   36  29  75 N7        30.17R WCI  30
6HR MIN TEMP:  33; 6HR MAX TEMP:  36;

WAUKESHA       NOT AVBL
MILWAUKEE/TIMM SUNNY     34  27  75 CALM      30.18R
RACINE         SUNNY     36  28  73 N14       30.17R WCI  27
6HR MIN TEMP:  32; 6HR MAX TEMP:  36;

BURLINGTON     SUNNY     26  25  97 CALM      30.15F
KENOSHA        SUNNY     33  28  81 N6        30.16R WCI  28
6HR MIN TEMP:  25; 6HR MAX TEMP:  34;

FOND DU LAC    MOSUNNY   30  27  88 CALM      30.16S
6HR MIN TEMP:  27; 6HR MAX TEMP:  37;

SHEBOYGAN      SUNNY     33  27  78 NW5       30.17S WCI  29
6HR MIN TEMP:  27; 6HR MAX TEMP:  33;

WEST BEND      MOSUNNY   32  27  80 NE5       30.15S WCI  27
JUNEAU         PTCLDY    29  27  90 CALM      30.17R
$$

LSZ147-162-231300-
LAKE SUPERIOR

STATION/POSITION TIME  TEMP    WIND        PRES    WAVE
                       AIR SEA DIR/SP/G            HT/PER
                 (UTC) (F)     (DEG/KT/KT) (MB)    (FT/S)
DEVILS ISLAND    1100   33     110/  3/  3 1022.1R
PORT WING        1100   25     100/  2/  2 1021.0R
SAXON HARBOR     1140             CALM     1021.3R
$$

LMZ867-665-643>646-231300-
LAKE MICHIGAN

STATION/POSITION TIME  TEMP    WIND        PRES    WAVE
                       AIR SEA DIR/SP/G            HT/PER
                 (UTC) (F)     (DEG/KT/KT) (MB)    (FT/S)
NORTHPORT PIER   1100   30     300/  8/ 10 1021.3R
SISTER BAY       1109   30      10/  6/  7   N/A
KEWAUNEE LAKESHO 1100   31     330/  5/  7 1021.6R
SHEBOYGAN LAKESH 1100   36     310/  7/  9 1022.4R
PORT WASHINGTON  1100   34     350/  4/  8 1022.0
MILWAUKEE LAKESH 1100   36      20/  9/ 11   N/A
KENOSHA   LAKESH 1100   36     350/  5/ 10   N/A
$$

TC  - TEMPERATURE IN CELSIUS
VSB - VISIBILITY IN STATUTE MILES
WCI - WIND CHILL INDEX
HX  - HEAT INDEX




USA.gov is the U.S. government's official web portal to all federal, state and local government web resources and services.